GSAT-19

Last updated on Sat Apr 13 2024 01:02:39 GMT+0100 (British Summer Time)

1 42747U 17031A 24103.53029598 .00000116 00000+0 00000+0 0 9993 2 42747 0.0904 84.8753 0005743 323.3284 31.8000 1.00272208 25155
UTC large
Height (km)
Speed (km/s)
/
Latitude / Longitude
Inclination (degrees)
Orbital Period (minutes)
Azimuth
Elevation
Range (km)
Doppler Factor

Next 0 passes for location: London (51.5072 / 0.1276)

Sorry there are no passes over London.